Le nostre stazioni meteo in Italia

Pubblicità
Il mio iltempo24.it
Olbia/Costa Smeralda, Italia (16531): Temperatura & dewpoint: 16.01.2020 00:00:00 - 22.01.2020 00:00:00 (CET)Olbia/Costa Smeralda, Italia (16531): velocità del vento: 16.01.2020 00:00:00 - 22.01.2020 00:00:00 (CET)Olbia/Costa Smeralda, Italia (16531): direzione del vento: 16.01.2020 00:00:00 - 22.01.2020 00:00:00 (CET)Olbia/Costa Smeralda, Italia (16531): reduced air pressure: 16.01.2020 00:00:00 - 22.01.2020 00:00:00 (CET)Olbia/Costa Smeralda, Italia (16531): visibility: 16.01.2020 00:00:00 - 22.01.2020 00:00:00 (CET)Olbia/Costa Smeralda, Italia (16531): precipitazioni: 16.01.2020 00:00:00 - 22.01.2020 00:00:00 (CET)
Data & Tempo tt [°C] td [°C] ff [km/h] ff [kn] dd ppp [hPa] vv [km] rr [mm]
22.01.2020 00:00:00 15,0 12,0 21 11 E - 10 -
21.01.2020 23:00:00 15,0 12,0 21 11 E - 10 -
21.01.2020 22:00:00 14,5 12,2 26 14 E 1032,3 10 0,0
21.01.2020 21:00:00 14,0 12,0 22 12 E - 10 -
21.01.2020 20:00:00 14,0 12,0 26 14 E - 10 -
21.01.2020 19:00:00 13,8 12,1 26 14 E 1031,9 10 -
21.01.2020 18:00:00 13,0 12,0 18 10 E - 7 -
21.01.2020 17:00:00 14,0 12,0 28 15 E - 9 -
21.01.2020 16:00:00 13,7 11,9 29 16 ESE 1032,4 6 0,0
21.01.2020 15:00:00 15,0 11,0 24 13 E - 10 -
21.01.2020 14:00:00 15,0 12,0 26 14 E - 10 -
21.01.2020 13:00:00 14,5 10,9 26 14 E 1033,7 10 -
21.01.2020 12:00:00 15,0 11,0 28 15 E - 10 -
21.01.2020 11:00:00 14,0 11,0 34 18 E - 10 -
21.01.2020 10:00:00 14,3 10,8 29 16 E 1034,2 10 0,0
21.01.2020 09:00:00 14,0 11,0 24 13 E - 10 -
21.01.2020 08:00:00 14,0 11,0 26 14 E - 10 -
21.01.2020 07:00:00 13,6 10,5 26 14 E 1033,4 10 -
21.01.2020 06:00:00 14,0 10,0 28 15 E - 10 -
21.01.2020 05:00:00 14,0 10,0 34 18 E - 10 -
21.01.2020 04:00:00 13,6 10,1 34 18 E 1033,0 10 0,0
21.01.2020 03:00:00 14,0 10,0 35 19 E - 10 -
21.01.2020 02:00:00 13,0 10,0 34 18 E - 10 -
21.01.2020 01:00:00 13,1 10,3 37 20 E 1033,0 10 -
21.01.2020 00:00:00 13,0 11,0 26 14 E - 10 -
20.01.2020 23:00:00 12,0 11,0 18 10 E - 9 -
20.01.2020 22:00:00 12,2 11,1 29 16 E 1032,5 7 0,0
20.01.2020 21:00:00 12,0 11,0 31 17 E - 3,0 -
20.01.2020 20:00:00 13,0 11,0 34 18 E - 5 -
20.01.2020 19:00:00 12,3 10,8 22 12 ENE 1031,0 5 -
20.01.2020 18:00:00 12,0 11,0 29 16 E - 3,0 -
20.01.2020 17:00:00 12,0 11,0 26 14 E - 6 -
20.01.2020 16:00:00 11,9 10,3 24 13 E 1029,5 6 0,0
20.01.2020 15:00:00 12,0 10,0 24 13 E - 6 -
20.01.2020 14:00:00 12,0 11,0 21 11 E - 7 -
20.01.2020 13:00:00 11,5 10,1 18 10 E 1029,8 5 -
20.01.2020 12:00:00 11,0 9,0 21 11 E - 10 -
20.01.2020 11:00:00 11,0 9,0 26 14 E - 8 -
20.01.2020 10:00:00 11,4 10,2 28 15 E 1028,2 10 0,0
20.01.2020 09:00:00 12,0 9,0 35 19 ENE - 10 -
20.01.2020 08:00:00 12,0 9,0 31 17 E - 10 -
20.01.2020 07:00:00 12,2 8,4 22 12 E 1025,9 10 -
20.01.2020 06:00:00 13,0 10,0 34 18 E - 10 -
20.01.2020 05:00:00 11,0 9,0 16 9 SE - 10 -
20.01.2020 04:00:00 11,4 9,8 5 3 NE 1024,9 10 0,0
20.01.2020 03:00:00 11,0 9,0 5 3 S - 10 -
20.01.2020 02:00:00 10,0 9,0 8 4 E - 10 -
20.01.2020 01:00:00 10,9 8,5 13 7 E 1024,9 10 -
20.01.2020 00:00:00 13,0 7,0 16 9 E - 10 -
19.01.2020 23:00:00 12,0 7,0 11 6 E - 10 -
19.01.2020 22:00:00 9,1 5,6 8 4 E 1024,3 10 0,0
19.01.2020 21:00:00 10,0 7,0 9 5 E - 10 -
19.01.2020 20:00:00 12,0 7,0 16 9 ENE - 10 -
19.01.2020 19:00:00 11,7 7,1 15 8 NE 1023,3 10 -
19.01.2020 18:00:00 12,0 7,0 16 9 NE - 10 -
19.01.2020 17:00:00 12,0 8,0 16 9 NE - 10 -
19.01.2020 16:00:00 12,2 6,7 15 8 NE 1022,5 10 0,0
19.01.2020 15:00:00 13,0 7,0 11 6 E - 10 -
19.01.2020 14:00:00 12,0 8,0 11 6 ENE - 10 -
19.01.2020 13:00:00 12,1 8,4 5 3 ENE 1021,8 10 -
19.01.2020 12:00:00 12,0 9,0 4 2 - - 10 -
19.01.2020 11:00:00 10,0 9,0 4 2 - - 10 -
19.01.2020 10:00:00 8,5 7,7 2 1 - 1022,4 10 0,0
19.01.2020 09:00:00 5,0 5,0 2 1 - - 10 -
19.01.2020 08:00:00 4,0 3,0 5 3 OSO - 10 -
19.01.2020 07:00:00 4,0 3,5 8 4 SSO 1022,0 10 -
19.01.2020 06:00:00 7,0 6,0 5 3 SSO - 10 -
19.01.2020 05:00:00 5,0 4,0 4 2 SSO - 10 -
19.01.2020 04:00:00 6,0 4,7 2 1 - 1022,5 10 0,0
19.01.2020 03:00:00 7,0 6,0 4 2 - - 10 -
19.01.2020 02:00:00 9,0 7,0 16 9 OSO - 10 -
19.01.2020 01:00:00 9,6 7,0 16 9 SO 1023,0 10 -
19.01.2020 00:00:00 9,0 6,0 13 7 SO - 10 -
18.01.2020 23:00:00 10,0 6,0 15 8 OSO - 10 -
18.01.2020 22:00:00 10,5 5,0 22 12 OSO 1023,1 10 0,0
18.01.2020 21:00:00 12,0 5,0 21 11 O - 10 -
18.01.2020 20:00:00 12,0 5,0 13 7 O - 10 -
18.01.2020 19:00:00 12,0 4,6 29 16 O 1023,3 10 -
18.01.2020 18:00:00 12,0 4,0 24 13 O - 10 -
18.01.2020 17:00:00 12,0 4,0 31 17 O - 10 -
18.01.2020 16:00:00 12,8 3,9 37 20 O 1023,5 10 0,0
18.01.2020 15:00:00 14,0 5,0 41 22 O - 10 -
18.01.2020 14:00:00 14,0 4,0 52 28 O - 10 -
18.01.2020 13:00:00 14,2 3,3 55 30 O 1023,8 10 -
18.01.2020 12:00:00 14,0 5,0 44 24 O - 10 -
18.01.2020 11:00:00 14,0 6,0 41 22 O - 10 -
18.01.2020 10:00:00 13,0 5,9 29 16 OSO 1025,1 10 0,0
18.01.2020 09:00:00 12,0 6,0 34 18 O - 10 -
18.01.2020 08:00:00 11,0 6,0 39 21 O - 10 -
18.01.2020 07:00:00 11,8 5,8 41 22 O 1023,4 10 -
18.01.2020 06:00:00 11,0 6,0 34 18 OSO - 10 -
18.01.2020 05:00:00 11,0 7,0 31 17 SO - 10 -
18.01.2020 04:00:00 11,2 7,3 28 15 OSO 1023,9 10 0,0
18.01.2020 03:00:00 11,0 8,0 22 12 O - 10 -
18.01.2020 02:00:00 11,0 10,0 13 7 OSO - 10 -
18.01.2020 01:00:00 11,3 10,4 18 10 OSO 1025,2 10 -
18.01.2020 00:00:00 11,0 9,0 16 9 OSO - 10 -
17.01.2020 23:00:00 9,0 7,0 8 4 SSO - 10 -
17.01.2020 22:00:00 6,5 4,8 4 2 - 1026,2 10 0,0
17.01.2020 21:00:00 7,0 4,0 5 3 ESE - 10 -
17.01.2020 20:00:00 10,0 6,0 9 5 SSO - 10 -
17.01.2020 19:00:00 9,6 5,6 9 5 S 1026,7 10 -
17.01.2020 18:00:00 11,0 6,0 5 3 SO - 10 -
17.01.2020 17:00:00 15,0 6,0 13 7 SO - 10 -
17.01.2020 16:00:00 16,0 4,3 18 10 SO 1026,3 10 0,0
17.01.2020 15:00:00 16,0 4,0 22 12 SO - 10 -
17.01.2020 14:00:00 16,0 4,0 21 11 SO - 10 -
17.01.2020 13:00:00 15,8 4,4 26 14 OSO 1027,1 10 -
17.01.2020 12:00:00 13,0 6,0 28 15 OSO - 10 -
17.01.2020 11:00:00 12,0 5,0 26 14 OSO - 10 -
17.01.2020 10:00:00 11,2 6,1 13 7 SO 1028,7 10 0,0
17.01.2020 09:00:00 8,0 5,0 11 6 SO - 10 -
17.01.2020 08:00:00 8,0 5,0 8 4 SSO - 10 -
17.01.2020 07:00:00 9,0 5,0 11 6 SSO - 10 -
17.01.2020 06:00:00 8,0 5,0 4 2 - - 10 -
17.01.2020 05:00:00 6,0 4,0 5 3 SSO - 10 -
17.01.2020 04:00:00 4,1 2,8 5 3 - 1028,9 10 0,0
17.01.2020 03:00:00 5,0 3,0 4 2 - - 10 -
17.01.2020 02:00:00 5,0 4,0 8 4 OSO - 10 -
17.01.2020 01:00:00 5,9 4,3 8 4 SO 1029,5 10 -
17.01.2020 00:00:00 5,0 4,0 2 1 - - 10 -
16.01.2020 23:00:00 4,0 4,0 2 1 - - 10 -
16.01.2020 22:00:00 5,3 4,7 2 1 - 1030,2 10 0,0
16.01.2020 21:00:00 6,0 5,0 5 3 SSO - 10 -
16.01.2020 20:00:00 5,0 4,0 2 1 - - 10 -
16.01.2020 19:00:00 6,9 5,5 2 1 SO 1030,2 10 -
16.01.2020 18:00:00 10,0 7,0 2 1 S - 10 -
16.01.2020 17:00:00 13,0 8,0 5 3 E - 10 -
16.01.2020 16:00:00 14,0 7,7 11 6 ENE 1029,4 10 0,0
16.01.2020 15:00:00 15,0 8,0 11 6 NE - 10 -
16.01.2020 14:00:00 15,0 6,0 9 5 NE - 10 -
16.01.2020 13:00:00 15,8 5,8 5 3 N 1030,2 10 -
16.01.2020 12:00:00 15,0 6,0 5 3 OSO - 10 -
16.01.2020 11:00:00 13,0 8,0 2 1 - - 10 -
16.01.2020 10:00:00 8,7 7,5 2 1 - 1031,5 10 0,0
16.01.2020 09:00:00 2,0 2,0 2 1 - - 10 -
16.01.2020 08:00:00 0,0 0,0 4 2 - - 10 -
16.01.2020 07:00:00 1,8 1,5 2 1 - 1030,8 10 -
16.01.2020 06:00:00 1,0 0,0 2 1 - - 10 -
16.01.2020 05:00:00 3,0 3,0 2 1 - - 10 -
16.01.2020 04:00:00 3,2 2,7 2 1 - 1030,2 10 0,0
16.01.2020 03:00:00 3,0 2,0 4 2 - - 10 -
16.01.2020 02:00:00 4,0 3,0 2 1 - - 10 -
16.01.2020 01:00:00 2,1 1,7 4 2 - 1030,3 10 -
16.01.2020 00:00:00 2,0 2,0 2 1 - - 10 -

tt = Temperatura
td = dewpoint
ff = velocità del vento
dd = direzione del vento
ppp = reduced air pressure
vv = visibility
rr = precipitazioni

Stazioni seguenti

WeatherPro
AMSI
MeteoEarth